TimeEDT,TemperatureF,Dew PointF,Humidity,Sea Level PressureIn,VisibilityMPH,Wind Direction,Wind SpeedMPH,Gust SpeedMPH,PrecipitationIn,Events,Conditions,WindDirDegrees,DateUTC
12:14 AM,43.2,37.6,81,29.95,10.0,WNW,3.5,-,N/A,,Mostly Cloudy,290,2012-10-16 04:14:00
12:16 AM,43.2,37.4,80,29.95,10.0,WNW,3.5,-,N/A,,Mostly Cloudy,290,2012-10-16 04:16:00
12:54 AM,45.7,37.8,74,29.96,10.0,NW,6.9,-,N/A,,Mostly Cloudy,320,2012-10-16 04:54:00
1:15 AM,44.6,37.8,77,29.96,10.0,WNW,4.6,-,N/A,,Overcast,300,2012-10-16 05:15:00
1:34 AM,43.0,37.0,80,29.96,10.0,WNW,3.5,-,N/A,,Scattered Clouds,300,2012-10-16 05:34:00
1:54 AM,40.3,36.1,85,29.96,10.0,WNW,3.5,-,N/A,,Clear,290,2012-10-16 05:54:00
2:15 AM,40.6,37.0,87,29.97,10.0,Calm,Calm,-,N/A,,Clear,0,2012-10-16 06:15:00
2:34 AM,40.3,35.8,84,29.97,10.0,WNW,4.6,-,N/A,,Clear,300,2012-10-16 06:34:00
2:54 AM,39.9,36.1,86,29.97,10.0,WNW,5.8,-,N/A,,Clear,300,2012-10-16 06:54:00
3:14 AM,39.7,36.3,88,29.97,10.0,WNW,4.6,-,N/A,,Clear,300,2012-10-16 07:14:00
3:34 AM,38.7,35.6,89,29.96,10.0,WNW,4.6,-,N/A,,Clear,290,2012-10-16 07:34:00
3:54 AM,37.2,35.2,93,29.96,10.0,WNW,4.6,-,N/A,,Clear,290,2012-10-16 07:54:00
4:14 AM,38.1,36.0,92,29.96,10.0,Calm,Calm,-,N/A,,Clear,0,2012-10-16 08:14:00
4:34 AM,37.4,35.2,92,29.96,10.0,Calm,Calm,-,N/A,,Scattered Clouds,0,2012-10-16 08:34:00
4:54 AM,35.4,33.6,93,29.97,7.0,West,4.6,-,N/A,,Clear,270,2012-10-16 08:54:00
5:14 AM,35.8,34.5,95,29.98,7.0,Calm,Calm,-,N/A,,Clear,0,2012-10-16 09:14:00
5:34 AM,36.5,34.9,94,29.98,10.0,Calm,Calm,-,N/A,,Clear,0,2012-10-16 09:34:00
5:54 AM,37.2,35.4,93,29.99,10.0,Calm,Calm,-,N/A,,Clear,0,2012-10-16 09:54:00
6:34 AM,35.1,33.3,93,29.99,7.0,Calm,Calm,-,N/A,,Clear,0,2012-10-16 10:34:00
6:54 AM,34.7,33.4,95,29.99,5.0,Calm,Calm,-,N/A,,Clear,0,2012-10-16 10:54:00
7:14 AM,33.3,32.0,95,30.00,4.0,Calm,Calm,-,N/A,,Clear,0,2012-10-16 11:14:00
7:34 AM,33.3,32.2,96,30.00,3.0,Calm,Calm,-,N/A,,Clear,0,2012-10-16 11:34:00
7:54 AM,32.7,32.0,97,30.00,2.5,Calm,Calm,-,N/A,,Clear,0,2012-10-16 11:54:00
8:14 AM,32.7,32.0,97,30.00,2.5,WSW,3.5,-,N/A,,Clear,250,2012-10-16 12:14:00
8:55 AM,38.1,37.0,96,30.01,5.0,Calm,Calm,-,N/A,,Clear,0,2012-10-16 12:55:00
9:14 AM,40.8,37.8,89,30.01,10.0,Calm,Calm,-,N/A,,Clear,0,2012-10-16 13:14:00
9:34 AM,43.5,37.6,80,30.01,10.0,Calm,Calm,-,N/A,,Clear,0,2012-10-16 13:34:00
9:55 AM,45.5,35.4,68,30.00,10.0,Calm,Calm,-,N/A,,Clear,0,2012-10-16 13:55:00
10:14 AM,46.8,36.3,67,30.01,10.0,Calm,Calm,-,N/A,,Clear,0,2012-10-16 14:14:00
10:34 AM,48.0,35.1,61,30.00,10.0,Calm,Calm,-,N/A,,Clear,0,2012-10-16 14:34:00
10:55 AM,48.9,34.9,58,30.00,10.0,Calm,Calm,-,N/A,,Clear,0,2012-10-16 14:55:00
11:14 AM,49.8,34.7,56,30.00,10.0,SW,5.8,-,N/A,,Clear,230,2012-10-16 15:14:00
11:34 AM,50.4,35.6,57,30.00,10.0,SSW,5.8,-,N/A,,Clear,210,2012-10-16 15:34:00
11:55 AM,50.9,34.0,52,30.00,10.0,West,3.5,-,N/A,,Clear,270,2012-10-16 15:55:00
12:14 PM,52.2,35.6,53,30.00,10.0,SSW,8.1,-,N/A,,Clear,200,2012-10-16 16:14:00
12:34 PM,53.1,34.2,49,29.99,10.0,SSW,4.6,-,N/A,,Clear,210,2012-10-16 16:34:00
12:55 PM,54.1,34.2,47,29.98,10.0,SW,6.9,-,N/A,,Clear,230,2012-10-16 16:55:00
1:14 PM,55.6,34.9,46,29.97,10.0,SW,4.6,-,N/A,,Clear,230,2012-10-16 17:14:00
1:34 PM,56.3,34.3,44,29.96,10.0,WSW,5.8,-,N/A,,Clear,240,2012-10-16 17:34:00
1:55 PM,57.7,34.2,41,29.94,0.8,SSW,4.6,-,N/A,,Unknown,200,2012-10-16 17:55:00
2:14 PM,58.8,35.2,41,29.92,10.0,SSW,4.6,-,N/A,,Clear,200,2012-10-16 18:14:00
2:34 PM,59.4,35.1,40,29.92,10.0,SW,6.9,-,N/A,,Clear,230,2012-10-16 18:34:00
2:54 PM,59.9,33.6,37,29.92,10.0,WSW,8.1,-,N/A,,Clear,240,2012-10-16 18:54:00
3:14 PM,61.0,35.1,38,29.91,10.0,SSW,6.9,-,N/A,,Clear,200,2012-10-16 19:14:00
3:35 PM,60.8,34.7,38,29.90,10.0,WSW,8.1,-,N/A,,Clear,250,2012-10-16 19:35:00
3:54 PM,60.8,35.2,38,29.90,10.0,WSW,10.4,-,N/A,,Clear,240,2012-10-16 19:54:00
4:14 PM,61.2,34.9,37,29.89,10.0,WSW,8.1,-,N/A,,Clear,240,2012-10-16 20:14:00
4:35 PM,61.7,35.4,38,29.89,10.0,SW,8.1,-,N/A,,Clear,230,2012-10-16 20:35:00
4:54 PM,61.0,36.0,39,29.88,10.0,SSW,8.1,-,N/A,,Clear,210,2012-10-16 20:54:00
5:14 PM,60.8,35.4,39,29.88,10.0,SSW,8.1,-,N/A,,Clear,210,2012-10-16 21:14:00
5:35 PM,61.7,35.8,38,29.87,10.0,SW,9.2,-,N/A,,Clear,220,2012-10-16 21:35:00
5:54 PM,60.3,36.0,40,29.87,10.0,SSW,8.1,-,N/A,,Clear,210,2012-10-16 21:54:00
6:14 PM,59.0,37.0,44,29.85,10.0,South,8.1,-,N/A,,Clear,190,2012-10-16 22:14:00
6:35 PM,56.3,37.4,49,29.85,10.0,South,5.8,-,N/A,,Clear,190,2012-10-16 22:35:00
6:54 PM,54.3,37.4,53,29.84,10.0,South,5.8,-,N/A,,Clear,190,2012-10-16 22:54:00
7:14 PM,52.9,37.6,56,29.84,10.0,South,5.8,-,N/A,,Clear,190,2012-10-16 23:14:00
7:35 PM,52.5,37.4,56,29.84,10.0,South,6.9,-,N/A,,Clear,190,2012-10-16 23:35:00
7:54 PM,51.8,37.4,58,29.83,10.0,South,6.9,-,N/A,,Clear,190,2012-10-16 23:54:00
8:14 PM,52.2,36.9,56,29.82,10.0,South,8.1,-,N/A,,Clear,190,2012-10-17 00:14:00
8:35 PM,52.2,36.7,56,29.82,10.0,South,6.9,-,N/A,,Clear,190,2012-10-17 00:35:00
8:54 PM,51.8,36.7,56,29.82,10.0,South,8.1,-,N/A,,Clear,190,2012-10-17 00:54:00
9:14 PM,52.2,36.7,56,29.82,10.0,South,10.4,-,N/A,,Clear,190,2012-10-17 01:14:00
9:35 PM,51.6,37.0,58,29.83,10.0,South,9.2,-,N/A,,Clear,190,2012-10-17 01:35:00
9:54 PM,50.9,37.2,59,29.83,10.0,South,9.2,-,N/A,,Clear,190,2012-10-17 01:54:00
10:14 PM,51.6,37.2,58,29.83,10.0,South,10.4,-,N/A,,Clear,190,2012-10-17 02:14:00
10:35 PM,50.2,37.4,62,29.83,10.0,South,6.9,-,N/A,,Clear,180,2012-10-17 02:35:00
10:54 PM,49.5,37.6,64,29.84,10.0,South,8.1,-,N/A,,Clear,190,2012-10-17 02:54:00
11:35 PM,49.3,37.6,64,29.84,10.0,South,8.1,-,N/A,,Mostly Cloudy,190,2012-10-17 03:35:00
11:54 PM,49.6,37.4,63,29.84,10.0,SSW,8.1,-,N/A,,Scattered Clouds,200,2012-10-17 03:54:00